Time,TemperatureF,DewpointF,PressureIn,WindDirection,WindDirectionDegrees,WindSpeedMPH,WindSpeedGustMPH,Humidity,HourlyPrecipIn,Conditions,Clouds,dailyrainin,SolarRadiationWatts/m^2,SoftwareType,DateUTC
2013-01-12 00:00:00,39.8,39.5,30.13,SE,124,1.8,6.7,98,-99.99,,,-99.99,1.0,HOBO +U30 +Weather +,2013-01-12 05:00:00,
2013-01-12 00:10:00,39.9,39.6,30.13,ESE,119,1.8,6.7,98,-99.99,,,-99.99,1.0,HOBO +U30 +Weather +,2013-01-12 05:10:00,
2013-01-12 00:20:00,39.9,39.6,30.13,ESE,107,0.7,4.5,98,-99.99,,,-99.99,1.0,HOBO +U30 +Weather +,2013-01-12 05:20:00,
2013-01-12 00:30:00,39.9,39.6,30.13,East,90,0.0,2.9,98,-99.99,,,-99.99,1.0,HOBO +U30 +Weather +,2013-01-12 05:30:00,
2013-01-12 00:40:00,39.9,39.7,30.13,ENE,76,0.0,3.4,99,-99.99,,,-99.99,1.0,HOBO +U30 +Weather +,2013-01-12 05:40:00,
2013-01-12 00:50:00,40.0,39.7,30.13,East,100,1.1,6.3,99,-99.99,,,-99.99,1.0,HOBO +U30 +Weather +,2013-01-12 05:50:00,
2013-01-12 01:00:00,39.8,39.5,30.12,ESE,105,1.1,5.1,99,-99.99,,,-99.99,1.0,HOBO +U30 +Weather +,2013-01-12 06:00:00,
2013-01-12 01:10:00,39.7,39.6,30.11,SE,133,1.8,7.4,99,-99.99,,,-99.99,1.0,HOBO +U30 +Weather +,2013-01-12 06:10:00,
2013-01-12 01:20:00,40.0,39.8,30.10,SE,142,2.2,7.8,99,-99.99,,,-99.99,1.0,HOBO +U30 +Weather +,2013-01-12 06:20:00,
2013-01-12 01:30:00,40.1,40.0,30.10,SE,135,2.9,10.1,99,-99.99,,,-99.99,1.0,HOBO +U30 +Weather +,2013-01-12 06:30:00,
2013-01-12 01:40:00,40.1,40.0,30.10,SE,126,2.2,7.8,99,-99.99,,,-99.99,1.0,HOBO +U30 +Weather +,2013-01-12 06:40:00,
2013-01-12 01:50:00,40.1,40.1,30.11,SE,133,2.2,7.8,99,-99.99,,,-99.99,1.0,HOBO +U30 +Weather +,2013-01-12 06:50:00,
2013-01-12 02:00:00,40.2,40.1,30.10,SE,138,1.1,5.6,99,-99.99,,,-99.99,1.0,HOBO +U30 +Weather +,2013-01-12 07:00:00,
2013-01-12 02:10:00,40.3,40.2,30.10,ESE,112,1.1,6.3,99,-99.99,,,-99.99,1.0,HOBO +U30 +Weather +,2013-01-12 07:10:00,
2013-01-12 02:20:00,40.3,40.2,30.11,ESE,117,0.0,5.1,99,-99.99,,,-99.99,1.0,HOBO +U30 +Weather +,2013-01-12 07:20:00,
2013-01-12 02:30:00,40.4,40.3,30.10,SE,125,1.8,5.6,99,-99.99,,,-99.99,1.0,HOBO +U30 +Weather +,2013-01-12 07:30:00,
2013-01-12 02:40:00,40.4,40.3,30.09,SE,125,1.1,7.4,99,-99.99,,,-99.99,1.0,HOBO +U30 +Weather +,2013-01-12 07:40:00,
2013-01-12 02:50:00,40.4,40.3,30.09,SE,138,1.1,6.7,99,-99.99,,,-99.99,1.0,HOBO +U30 +Weather +,2013-01-12 07:50:00,
2013-01-12 03:00:00,40.4,40.3,30.09,SE,136,1.1,5.1,99,-99.99,,,-99.99,1.0,HOBO +U30 +Weather +,2013-01-12 08:00:00,
2013-01-12 03:10:00,40.4,40.3,30.09,SE,133,2.2,8.5,99,-99.99,,,-99.99,1.0,HOBO +U30 +Weather +,2013-01-12 08:10:00,
2013-01-12 03:20:00,40.4,40.3,30.08,SE,133,2.9,10.1,99,-99.99,,,-99.99,1.0,HOBO +U30 +Weather +,2013-01-12 08:20:00,
2013-01-12 03:30:00,40.3,40.2,30.08,SE,140,4.0,10.1,99,-99.99,,,-99.99,1.0,HOBO +U30 +Weather +,2013-01-12 08:30:00,
2013-01-12 03:40:00,40.2,40.1,30.07,SE,142,3.4,9.6,99,-99.99,,,-99.99,1.0,HOBO +U30 +Weather +,2013-01-12 08:40:00,
2013-01-12 03:50:00,40.2,40.0,30.07,SE,136,3.4,10.7,99,-99.99,,,-99.99,1.0,HOBO +U30 +Weather +,2013-01-12 08:50:00,
2013-01-12 04:00:00,40.1,39.9,30.07,SE,129,2.9,8.5,99,-99.99,,,-99.99,1.0,HOBO +U30 +Weather +,2013-01-12 09:00:00,
2013-01-12 04:10:00,40.1,39.8,30.07,SE,142,2.2,7.8,99,-99.99,,,-99.99,1.0,HOBO +U30 +Weather +,2013-01-12 09:10:00,
2013-01-12 04:20:00,40.0,39.8,30.08,ESE,122,0.7,6.7,99,-99.99,,,-99.99,1.0,HOBO +U30 +Weather +,2013-01-12 09:20:00,
2013-01-12 04:30:00,39.9,39.7,30.07,SE,139,0.7,6.3,99,-99.99,,,-99.99,1.0,HOBO +U30 +Weather +,2013-01-12 09:30:00,
2013-01-12 04:40:00,39.8,39.6,30.06,SE,126,1.1,5.1,99,-99.99,,,-99.99,1.0,HOBO +U30 +Weather +,2013-01-12 09:40:00,
2013-01-12 04:50:00,39.8,39.7,30.06,SE,142,0.7,5.1,99,-99.99,,,-99.99,1.0,HOBO +U30 +Weather +,2013-01-12 09:50:00,
2013-01-12 05:00:00,39.8,39.7,30.06,SE,140,1.8,6.7,99,-99.99,,,-99.99,1.0,HOBO +U30 +Weather +,2013-01-12 10:00:00,
2013-01-12 05:10:00,39.8,39.7,30.07,SE,136,0.7,5.6,99,-99.99,,,-99.99,1.0,HOBO +U30 +Weather +,2013-01-12 10:10:00,
2013-01-12 05:20:00,39.7,39.6,30.07,SE,129,0.0,4.0,99,-99.99,,,-99.99,1.0,HOBO +U30 +Weather +,2013-01-12 10:20:00,
2013-01-12 05:30:00,39.8,39.7,30.08,East,100,0.0,0.0,99,-99.99,,,-99.99,1.0,HOBO +U30 +Weather +,2013-01-12 10:30:00,
2013-01-12 05:40:00,39.7,39.6,30.09,East,100,0.0,0.0,99,-99.99,,,-99.99,1.0,HOBO +U30 +Weather +,2013-01-12 10:40:00,
2013-01-12 05:50:00,39.7,39.7,30.08,East,100,0.0,0.0,99,-99.99,,,-99.99,1.0,HOBO +U30 +Weather +,2013-01-12 10:50:00,
2013-01-12 06:00:00,39.7,39.7,30.07,ESE,102,0.7,3.4,99,-99.99,,,-99.99,1.0,HOBO +U30 +Weather +,2013-01-12 11:00:00,
2013-01-12 06:10:00,39.7,39.7,30.07,East,91,0.7,3.4,100,-99.99,,,-99.99,1.0,HOBO +U30 +Weather +,2013-01-12 11:10:00,
2013-01-12 06:20:00,39.5,39.5,30.07,East,88,0.0,0.0,100,-99.99,,,-99.99,1.0,HOBO +U30 +Weather +,2013-01-12 11:20:00,
2013-01-12 06:30:00,40.9,40.9,30.06,East,81,0.0,0.0,100,-99.99,,,-99.99,1.0,HOBO +U30 +Weather +,2013-01-12 11:30:00,
2013-01-12 06:40:00,39.9,39.9,30.07,NNE,15,0.0,0.7,100,-99.99,,,-99.99,1.0,HOBO +U30 +Weather +,2013-01-12 11:40:00,
2013-01-12 06:50:00,39.5,39.5,30.07,North,8,0.0,0.0,100,-99.99,,,-99.99,1.0,HOBO +U30 +Weather +,2013-01-12 11:50:00,
2013-01-12 07:00:00,39.4,39.4,30.07,North,8,0.0,0.0,100,-99.99,,,-99.99,2.0,HOBO +U30 +Weather +,2013-01-12 12:00:00,
2013-01-12 07:10:00,39.4,39.4,30.07,North,8,0.0,0.7,100,-99.99,,,-99.99,1.0,HOBO +U30 +Weather +,2013-01-12 12:10:00,
2013-01-12 07:20:00,39.5,39.5,30.08,North,6,0.0,0.0,100,-99.99,,,-99.99,3.0,HOBO +U30 +Weather +,2013-01-12 12:20:00,
2013-01-12 07:30:00,39.5,39.5,30.09,North,355,0.0,0.0,100,-99.99,,,-99.99,7.0,HOBO +U30 +Weather +,2013-01-12 12:30:00,
2013-01-12 07:40:00,39.3,39.3,30.09,NNW,343,0.0,1.1,100,-99.99,,,-99.99,9.0,HOBO +U30 +Weather +,2013-01-12 12:40:00,
2013-01-12 07:50:00,39.4,39.4,30.09,NNW,345,0.0,0.7,100,-99.99,,,-99.99,12.0,HOBO +U30 +Weather +,2013-01-12 12:50:00,
2013-01-12 08:00:00,39.5,39.5,30.10,NNW,337,0.0,0.0,100,-99.99,,,-99.99,11.0,HOBO +U30 +Weather +,2013-01-12 13:00:00,
2013-01-12 08:10:00,39.4,39.4,30.10,NNW,331,0.0,0.7,100,-99.99,,,-99.99,16.0,HOBO +U30 +Weather +,2013-01-12 13:10:00,
2013-01-12 08:20:00,39.5,39.5,30.10,North,7,0.0,1.1,100,-99.99,,,-99.99,19.0,HOBO +U30 +Weather +,2013-01-12 13:20:00,
2013-01-12 08:30:00,39.5,39.5,30.09,North,4,0.0,0.0,100,-99.99,,,-99.99,28.0,HOBO +U30 +Weather +,2013-01-12 13:30:00,
2013-01-12 08:40:00,39.6,39.6,30.10,North,355,0.0,2.2,100,-99.99,,,-99.99,31.0,HOBO +U30 +Weather +,2013-01-12 13:40:00,
2013-01-12 08:50:00,39.7,39.7,30.11,North,1,0.7,3.4,100,-99.99,,,-99.99,38.0,HOBO +U30 +Weather +,2013-01-12 13:50:00,
2013-01-12 09:00:00,39.8,39.8,30.11,North,355,1.1,4.5,100,-99.99,,,-99.99,41.0,HOBO +U30 +Weather +,2013-01-12 14:00:00,
2013-01-12 09:10:00,39.9,39.9,30.11,North,10,0.7,4.0,100,-99.99,,,-99.99,67.0,HOBO +U30 +Weather +,2013-01-12 14:10:00,
2013-01-12 09:20:00,40.2,40.2,30.11,NNE,24,0.7,5.6,100,-99.99,,,-99.99,82.0,HOBO +U30 +Weather +,2013-01-12 14:20:00,
2013-01-12 09:30:00,40.6,40.6,30.10,NNE,20,0.0,1.8,100,-99.99,,,-99.99,93.0,HOBO +U30 +Weather +,2013-01-12 14:30:00,
2013-01-12 09:40:00,40.5,40.5,30.11,NNE,17,0.0,3.4,100,-99.99,,,-99.99,81.0,HOBO +U30 +Weather +,2013-01-12 14:40:00,
2013-01-12 09:50:00,40.8,40.8,30.10,NNE,15,0.0,3.4,100,-99.99,,,-99.99,128.0,HOBO +U30 +Weather +,2013-01-12 14:50:00,
2013-01-12 10:00:00,40.9,40.9,30.10,NNE,20,0.0,1.1,100,-99.99,,,-99.99,87.0,HOBO +U30 +Weather +,2013-01-12 15:00:00,
2013-01-12 10:10:00,41.1,41.1,30.10,NNE,14,0.0,3.4,100,-99.99,,,-99.99,111.0,HOBO +U30 +Weather +,2013-01-12 15:10:00,
2013-01-12 10:20:00,42.2,42.2,30.10,North,3,0.0,0.0,100,-99.99,,,-99.99,133.0,HOBO +U30 +Weather +,2013-01-12 15:20:00,
2013-01-12 10:30:00,42.2,42.1,30.09,NE,39,0.0,0.7,99,-99.99,,,-99.99,136.0,HOBO +U30 +Weather +,2013-01-12 15:30:00,
2013-01-12 10:40:00,42.3,42.1,30.09,East,81,0.0,0.7,99,-99.99,,,-99.99,104.0,HOBO +U30 +Weather +,2013-01-12 15:40:00,
2013-01-12 10:50:00,42.9,42.6,30.09,East,98,0.0,0.0,98,-99.99,,,-99.99,103.0,HOBO +U30 +Weather +,2013-01-12 15:50:00,
2013-01-12 11:00:00,41.8,41.4,30.10,NNW,338,0.7,3.4,98,-99.99,,,-99.99,41.0,HOBO +U30 +Weather +,2013-01-12 16:00:00,
2013-01-12 11:10:00,42.1,41.8,30.09,NNW,345,0.0,3.4,98,-99.99,,,-99.99,87.0,HOBO +U30 +Weather +,2013-01-12 16:10:00,
2013-01-12 11:20:00,42.5,42.2,30.08,NE,51,0.0,2.2,98,-99.99,,,-99.99,124.0,HOBO +U30 +Weather +,2013-01-12 16:20:00,
2013-01-12 11:30:00,42.6,42.2,30.08,NE,45,0.0,0.7,98,-99.99,,,-99.99,64.0,HOBO +U30 +Weather +,2013-01-12 16:30:00,
2013-01-12 11:40:00,42.4,42.1,30.08,NNE,21,0.0,2.2,98,-99.99,,,-99.99,83.0,HOBO +U30 +Weather +,2013-01-12 16:40:00,
2013-01-12 11:50:00,42.7,42.4,30.07,NNE,31,0.0,0.7,98,-99.99,,,-99.99,89.0,HOBO +U30 +Weather +,2013-01-12 16:50:00,
2013-01-12 12:00:00,42.9,42.6,30.08,NNE,27,0.0,1.8,98,-99.99,,,-99.99,67.0,HOBO +U30 +Weather +,2013-01-12 17:00:00,
2013-01-12 12:10:00,43.2,42.8,30.07,North,11,0.0,1.1,98,-99.99,,,-99.99,89.0,HOBO +U30 +Weather +,2013-01-12 17:10:00,
2013-01-12 12:20:00,43.3,42.8,30.05,East,81,0.7,5.1,98,-99.99,,,-99.99,153.0,HOBO +U30 +Weather +,2013-01-12 17:20:00,
2013-01-12 12:30:00,43.8,43.2,30.05,ENE,63,0.0,2.2,97,-99.99,,,-99.99,163.0,HOBO +U30 +Weather +,2013-01-12 17:30:00,
2013-01-12 12:40:00,44.7,44.0,30.06,ENE,62,0.0,3.4,97,-99.99,,,-99.99,167.0,HOBO +U30 +Weather +,2013-01-12 17:40:00,
2013-01-12 12:50:00,45.3,44.3,30.04,East,90,0.0,1.1,96,-99.99,,,-99.99,116.0,HOBO +U30 +Weather +,2013-01-12 17:50:00,
2013-01-12 13:00:00,44.9,43.8,30.04,NE,51,0.0,0.7,95,-99.99,,,-99.99,96.0,HOBO +U30 +Weather +,2013-01-12 18:00:00,
2013-01-12 13:10:00,44.4,43.6,30.06,NNW,338,0.0,2.9,96,-99.99,,,-99.99,66.0,HOBO +U30 +Weather +,2013-01-12 18:10:00,
2013-01-12 13:20:00,44.0,43.2,30.06,NNW,329,0.0,2.2,97,-99.99,,,-99.99,74.0,HOBO +U30 +Weather +,2013-01-12 18:20:00,
2013-01-12 13:30:00,43.9,43.2,30.06,NNW,343,0.0,1.8,97,-99.99,,,-99.99,71.0,HOBO +U30 +Weather +,2013-01-12 18:30:00,
2013-01-12 13:40:00,44.0,43.4,30.06,NNW,341,0.0,1.1,97,-99.99,,,-99.99,62.0,HOBO +U30 +Weather +,2013-01-12 18:40:00,
2013-01-12 13:50:00,43.7,43.1,30.07,NNW,337,0.0,2.2,97,-99.99,,,-99.99,64.0,HOBO +U30 +Weather +,2013-01-12 18:50:00,
2013-01-12 14:00:00,44.0,43.5,30.08,NW,324,0.0,2.9,98,-99.99,,,-99.99,51.0,HOBO +U30 +Weather +,2013-01-12 19:00:00,
2013-01-12 14:10:00,43.8,43.3,30.08,North,350,0.7,4.0,98,-99.99,,,-99.99,43.0,HOBO +U30 +Weather +,2013-01-12 19:10:00,
2013-01-12 14:20:00,43.8,43.4,30.09,North,355,0.0,4.0,98,-99.99,,,-99.99,46.0,HOBO +U30 +Weather +,2013-01-12 19:20:00,
2013-01-12 14:30:00,44.3,43.9,30.08,North,3,0.0,0.0,98,-99.99,,,-99.99,53.0,HOBO +U30 +Weather +,2013-01-12 19:30:00,
2013-01-12 14:40:00,44.1,43.7,30.08,North,3,0.0,0.0,98,-99.99,,,-99.99,59.0,HOBO +U30 +Weather +,2013-01-12 19:40:00,
2013-01-12 14:50:00,43.7,43.4,30.09,North,4,0.0,1.8,98,-99.99,,,-99.99,49.0,HOBO +U30 +Weather +,2013-01-12 19:50:00,
2013-01-12 15:00:00,43.9,43.7,30.09,North,4,0.0,0.7,99,-99.99,,,-99.99,27.0,HOBO +U30 +Weather +,2013-01-12 20:00:00,
2013-01-12 15:10:00,43.7,43.6,30.09,North,355,0.0,0.0,99,-99.99,,,-99.99,22.0,HOBO +U30 +Weather +,2013-01-12 20:10:00,
2013-01-12 15:20:00,43.9,43.8,30.09,North,355,0.0,0.0,99,-99.99,,,-99.99,22.0,HOBO +U30 +Weather +,2013-01-12 20:20:00,
2013-01-12 15:30:00,44.0,43.9,30.09,North,355,0.0,0.0,99,-99.99,,,-99.99,28.0,HOBO +U30 +Weather +,2013-01-12 20:30:00,
2013-01-12 15:40:00,43.8,43.7,30.08,North,355,0.0,0.0,99,-99.99,,,-99.99,28.0,HOBO +U30 +Weather +,2013-01-12 20:40:00,
2013-01-12 15:50:00,43.7,43.6,30.08,North,355,0.0,0.0,99,-99.99,,,-99.99,17.0,HOBO +U30 +Weather +,2013-01-12 20:50:00,
2013-01-12 16:00:00,43.7,43.7,30.08,North,355,0.0,0.0,100,-99.99,,,-99.99,21.0,HOBO +U30 +Weather +,2013-01-12 21:00:00,
2013-01-12 16:10:00,43.4,43.4,30.09,North,355,0.0,0.0,100,-99.99,,,-99.99,7.0,HOBO +U30 +Weather +,2013-01-12 21:10:00,
2013-01-12 16:20:00,43.4,43.4,30.09,North,350,0.0,0.7,100,-99.99,,,-99.99,6.0,HOBO +U30 +Weather +,2013-01-12 21:20:00,
2013-01-12 16:30:00,43.3,43.3,30.09,NNW,341,0.0,0.7,100,-99.99,,,-99.99,4.0,HOBO +U30 +Weather +,2013-01-12 21:30:00,
2013-01-12 16:40:00,43.4,43.4,30.08,NNW,341,0.0,0.0,100,-99.99,,,-99.99,1.0,HOBO +U30 +Weather +,2013-01-12 21:40:00,
2013-01-12 16:50:00,43.4,43.5,30.08,NNW,341,0.0,0.0,100,-99.99,,,-99.99,1.0,HOBO +U30 +Weather +,2013-01-12 21:50:00,
2013-01-12 17:00:00,43.4,43.4,30.07,NNW,341,0.0,0.0,100,-99.99,,,-99.99,1.0,HOBO +U30 +Weather +,2013-01-12 22:00:00,
2013-01-12 17:10:00,43.4,43.5,30.07,NNW,341,0.0,0.0,100,-99.99,,,-99.99,1.0,HOBO +U30 +Weather +,2013-01-12 22:10:00,
2013-01-12 17:20:00,43.4,43.4,30.08,NNW,338,0.0,0.7,100,-99.99,,,-99.99,1.0,HOBO +U30 +Weather +,2013-01-12 22:20:00,
2013-01-12 17:30:00,43.2,43.2,30.08,NNW,330,0.0,1.1,100,-99.99,,,-99.99,1.0,HOBO +U30 +Weather +,2013-01-12 22:30:00,
2013-01-12 17:40:00,43.2,43.2,30.09,NNW,331,0.0,1.1,100,-99.99,,,-99.99,1.0,HOBO +U30 +Weather +,2013-01-12 22:40:00,
2013-01-12 17:50:00,43.1,43.1,30.09,NNW,333,0.0,1.1,100,-99.99,,,-99.99,1.0,HOBO +U30 +Weather +,2013-01-12 22:50:00,
2013-01-12 18:00:00,43.1,43.1,30.09,NNW,330,0.0,1.1,100,-99.99,,,-99.99,1.0,HOBO +U30 +Weather +,2013-01-12 23:00:00,
2013-01-12 18:10:00,43.0,43.0,30.09,NNW,329,0.0,1.1,100,-99.99,,,-99.99,1.0,HOBO +U30 +Weather +,2013-01-12 23:10:00,
2013-01-12 18:20:00,43.1,43.1,30.10,NNW,329,0.0,2.2,100,-99.99,,,-99.99,1.0,HOBO +U30 +Weather +,2013-01-12 23:20:00,
2013-01-12 18:30:00,42.9,42.9,30.09,NNW,337,0.0,0.0,100,-99.99,,,-99.99,1.0,HOBO +U30 +Weather +,2013-01-12 23:30:00,
2013-01-12 18:40:00,43.0,43.0,30.09,NNW,337,0.0,0.0,100,-99.99,,,-99.99,1.0,HOBO +U30 +Weather +,2013-01-12 23:40:00,
2013-01-12 18:50:00,42.9,42.9,30.09,NNW,337,0.0,0.0,100,-99.99,,,-99.99,1.0,HOBO +U30 +Weather +,2013-01-12 23:50:00,
2013-01-12 19:00:00,42.8,42.8,30.08,NNW,337,0.0,0.0,100,-99.99,,,-99.99,1.0,HOBO +U30 +Weather +,2013-01-13 00:00:00,
2013-01-12 19:10:00,42.9,42.9,30.08,NNW,337,0.0,0.0,100,-99.99,,,-99.99,1.0,HOBO +U30 +Weather +,2013-01-13 00:10:00,
2013-01-12 19:20:00,42.9,42.9,30.08,NNW,337,0.0,0.0,100,-99.99,,,-99.99,1.0,HOBO +U30 +Weather +,2013-01-13 00:20:00,
2013-01-12 19:30:00,42.8,42.8,30.07,NNW,337,0.0,0.0,100,-99.99,,,-99.99,1.0,HOBO +U30 +Weather +,2013-01-13 00:30:00,
2013-01-12 19:40:00,42.9,42.9,30.08,NNW,337,0.0,0.0,100,-99.99,,,-99.99,1.0,HOBO +U30 +Weather +,2013-01-13 00:40:00,
2013-01-12 19:50:00,42.7,42.7,30.08,NNW,337,0.0,0.0,100,-99.99,,,-99.99,1.0,HOBO +U30 +Weather +,2013-01-13 00:50:00,
2013-01-12 20:00:00,42.7,42.7,30.07,NNW,337,0.0,0.0,100,-99.99,,,-99.99,1.0,HOBO +U30 +Weather +,2013-01-13 01:00:00,
2013-01-12 20:10:00,42.7,42.7,30.07,NNW,337,0.0,0.0,100,-99.99,,,-99.99,1.0,HOBO +U30 +Weather +,2013-01-13 01:10:00,
2013-01-12 20:20:00,42.7,42.7,30.07,NNW,337,0.0,0.0,100,-99.99,,,-99.99,1.0,HOBO +U30 +Weather +,2013-01-13 01:20:00,
2013-01-12 20:30:00,42.7,42.7,30.07,NNW,337,0.0,0.0,100,-99.99,,,-99.99,1.0,HOBO +U30 +Weather +,2013-01-13 01:30:00,
2013-01-12 20:40:00,42.7,42.7,30.06,NNW,337,0.0,0.0,100,-99.99,,,-99.99,1.0,HOBO +U30 +Weather +,2013-01-13 01:40:00,
2013-01-12 20:50:00,42.5,42.5,30.07,NNW,337,0.0,0.0,100,-99.99,,,-99.99,1.0,HOBO +U30 +Weather +,2013-01-13 01:50:00,
2013-01-12 21:00:00,42.5,42.5,30.08,NNW,337,0.0,0.0,100,-99.99,,,-99.99,1.0,HOBO +U30 +Weather +,2013-01-13 02:00:00,
2013-01-12 21:10:00,42.6,42.6,30.08,NNW,337,0.0,0.0,100,-99.99,,,-99.99,1.0,HOBO +U30 +Weather +,2013-01-13 02:10:00,
2013-01-12 21:20:00,42.5,42.5,30.08,NNW,337,0.0,0.0,100,-99.99,,,-99.99,1.0,HOBO +U30 +Weather +,2013-01-13 02:20:00,
2013-01-12 21:30:00,42.7,42.7,30.08,NNW,337,0.0,0.0,100,-99.99,,,-99.99,1.0,HOBO +U30 +Weather +,2013-01-13 02:30:00,
2013-01-12 21:40:00,42.6,42.6,30.08,NNW,337,0.0,0.0,100,-99.99,,,-99.99,1.0,HOBO +U30 +Weather +,2013-01-13 02:40:00,
2013-01-12 21:50:00,42.6,42.6,30.07,NNW,337,0.0,0.0,100,-99.99,,,-99.99,1.0,HOBO +U30 +Weather +,2013-01-13 02:50:00,
2013-01-12 22:00:00,42.5,42.5,30.06,NNW,348,0.0,0.0,100,-99.99,,,-99.99,1.0,HOBO +U30 +Weather +,2013-01-13 03:00:00,
2013-01-12 22:10:00,42.4,42.4,30.06,ENE,70,0.0,0.0,100,-99.99,,,-99.99,1.0,HOBO +U30 +Weather +,2013-01-13 03:10:00,
2013-01-12 22:20:00,42.6,42.6,30.07,ENE,70,0.0,0.0,100,-99.99,,,-99.99,1.0,HOBO +U30 +Weather +,2013-01-13 03:20:00,
2013-01-12 22:30:00,42.6,42.6,30.07,ENE,70,0.0,0.0,100,-99.99,,,-99.99,1.0,HOBO +U30 +Weather +,2013-01-13 03:30:00,
2013-01-12 22:40:00,42.7,42.7,30.07,ENE,70,0.0,0.0,100,-99.99,,,-99.99,1.0,HOBO +U30 +Weather +,2013-01-13 03:40:00,
2013-01-12 22:50:00,42.6,42.6,30.07,ENE,70,0.0,0.0,100,-99.99,,,-99.99,1.0,HOBO +U30 +Weather +,2013-01-13 03:50:00,
2013-01-12 23:00:00,42.6,42.6,30.06,ENE,70,0.0,0.0,100,-99.99,,,-99.99,1.0,HOBO +U30 +Weather +,2013-01-13 04:00:00,
2013-01-12 23:10:00,42.6,42.6,30.06,ENE,70,0.0,0.0,100,-99.99,,,-99.99,1.0,HOBO +U30 +Weather +,2013-01-13 04:10:00,
2013-01-12 23:20:00,42.7,42.7,30.05,SE,129,0.0,0.7,100,-99.99,,,-99.99,1.0,HOBO +U30 +Weather +,2013-01-13 04:20:00,
2013-01-12 23:30:00,42.7,42.7,30.06,SE,132,0.0,0.0,100,-99.99,,,-99.99,1.0,HOBO +U30 +Weather +,2013-01-13 04:30:00,
2013-01-12 23:40:00,42.8,42.8,30.06,SE,132,0.0,0.0,100,-99.99,,,-99.99,1.0,HOBO +U30 +Weather +,2013-01-13 04:40:00,
2013-01-12 23:50:00,42.7,42.7,30.06,SE,132,0.0,0.0,100,-99.99,,,-99.99,1.0,HOBO +U30 +Weather +,2013-01-13 04:50:00,